This is the latest recevied weather packets stored in our database for station/object K7NDG. If no packets are shown the sender has not sent any weather packets the latest 10 day(s).
| Time | Temp. | Humidity | Pressure | Rain* | Wind** | Luminosity | Snow |
|---|---|---|---|---|---|---|---|
| 1777830050 | 22.78° C | 49% | 1013.6 hPa | 0 mm | - | 511 W/m² | - |
| 1777829745 | 22.78° C | 48% | 1013.5 hPa | 0 mm | - | 476 W/m² | - |
| 1777829442 | 22.22° C | 50% | 1013.6 hPa | 0 mm | - | 493 W/m² | - |
| 1777829139 | 22.22° C | 49% | 1013.4 hPa | 0 mm | - | 487 W/m² | - |
| 1777828836 | 21.67° C | 51% | 1013.6 hPa | 0 mm | - | 466 W/m² | - |
| 1777828533 | 21.67° C | 53% | 1013.7 hPa | 0 mm | - | 436 W/m² | - |
| 1777828230 | 21.67° C | 55% | 1013.7 hPa | 0 mm | - | 402 W/m² | - |
| 1777827926 | 21.11° C | 55% | 1013.6 hPa | 0 mm | - | 318 W/m² | - |
| 1777827624 | 21.11° C | 58% | 1013.6 hPa | 0 mm | - | 423 W/m² | - |
| 1777827321 | 20.56° C | 57% | 1013.7 hPa | 0 mm | - | 388 W/m² | - |
| 1777827017 | 20° C | 58% | 1013.8 hPa | 0 mm | - | 406 W/m² | - |
| 1777826715 | 20° C | 62% | 1013.8 hPa | 0 mm | - | 347 W/m² | - |
| 1777826411 | 20° C | 63% | 1013.9 hPa | 0 mm | - | 349 W/m² | - |
| 1777826108 | 19.44° C | 64% | 1013.9 hPa | 0 mm | - | 363 W/m² | - |
| 1777825805 | 19.44° C | 63% | 1014.1 hPa | 0 mm | - | 354 W/m² | - |
| 1777825503 | 18.89° C | 70% | 1014 hPa | 0 mm | - | 363 W/m² | - |
| 1777825200 | 18.33° C | 70% | 1014.1 hPa | 0 mm | - | 356 W/m² | - |
| 1777824896 | 17.78° C | 73% | 1014.1 hPa | 0 mm | - | 325 W/m² | - |
| 1777824592 | 17.22° C | 75% | 1014 hPa | 0 mm | - | 323 W/m² | - |
| 1777824290 | 16.67° C | 79% | 1014.1 hPa | 0 mm | - | 289 W/m² | - |
| 1777823984 | 16.11° C | 80% | 1014.1 hPa | 0 mm | - | 279 W/m² | - |
| 1777823682 | 15.56° C | 80% | 1014.2 hPa | 0 mm | - | 116 W/m² | - |
| 1777823379 | 15.56° C | 81% | 1014.2 hPa | 0 mm | - | 263 W/m² | - |
| 1777823077 | 15° C | 82% | 1014.1 hPa | 0 mm | - | 624 W/m² | - |
| 1777822774 | 14.44° C | 82% | 1014.1 hPa | 0 mm | - | 302 W/m² | - |
* Rain latest hour (hover to see other rain measurements)
** Current wind speed in m/s (hover to see current wind gust speed)